H1 CPF 2 NER 2023 12 21 9 355 01 glonass143 H2 2007501 9143 46805 2023 12 21 0 0 0 2023 12 24 23 45 0 900 1 1 0 0 0 1 H9 10 0 60299 0.00000 0 -18686279.441 16924314.204 3937317.880 10 0 60299 900.00000 0 -18129051.705 16513764.868 7054748.622 10 0 60299 1800.00000 0 -17373611.717 15767114.055 10035276.820 10 0 60299 2700.00000 0 -16476317.132 14673329.439 12821077.341 10 0 60299 3600.00000 0 -15496271.658 13234211.969 15358108.516 10 0 60299 4500.00000 0 -14492732.686 11464557.913 17597156.779 10 0 60299 5400.00000 0 -13522531.144 9391785.469 19494787.182 10 0 60299 6300.00000 0 -12637611.920 7055040.534 21014181.868 10 0 60299 7200.00000 0 -11882797.939 4503817.931 22125850.773 10 0 60299 8100.00000 0 -11293871.402 1796154.297 22808201.381 10 0 60299 9000.00000 0 -10896052.409 -1003533.438 23047956.932 10 0 60299 9900.00000 0 -10702938.531 -3826875.488 22840415.282 10 0 60299 10800.00000 0 -10715949.707 -6604143.012 22189543.467 10 0 60299 11700.00000 0 -10924301.816 -9266901.891 21107905.913 10 0 60299 12600.00000 0 -11305510.261 -11750617.340 19616427.255 10 0 60299 13500.00000 0 -11826402.796 -13997102.085 17743993.659 10 0 60299 14400.00000 0 -12444599.473 -15956707.053 15526899.585 10 0 60299 15300.00000 0 -13110397.867 -17590163.863 13008149.853 10 0 60299 16200.00000 0 -13768984.529 -18870002.672 10236629.810 10 0 60299 17100.00000 0 -14362879.561 -19781486.405 7266159.039 10 0 60299 18000.00000 0 -14834511.054 -20323022.483 4154446.709 10 0 60299 18900.00000 0 -15128810.253 -20506035.046 961968.752 10 0 60299 19800.00000 0 -15195717.102 -20354303.378 -2249211.044 10 0 60299 20700.00000 0 -14992489.359 -19902794.843 -5416652.582 10 0 60299 21600.00000 0 -14485716.547 -19196042.078 -8478759.378 10 0 60299 22500.00000 0 -13652952.465 -18286133.605 -11375982.368 10 0 60299 23400.00000 0 -12483896.096 -17230403.378 -14051983.361 10 0 60299 24300.00000 0 -10981069.912 -16088917.542 -16454734.872 10 0 60299 25200.00000 0 -9159965.900 -14921865.086 -18537534.508 10 0 60299 26100.00000 0 -7048652.156 -13786962.995 -20259913.919 10 0 60299 27000.00000 0 -4686855.678 -12736985.557 -21588424.703 10 0 60299 27900.00000 0 -2124558.926 -11817521.967 -22497286.244 10 0 60299 28800.00000 0 579831.855 -11065056.441 -22968883.301 10 0 60299 29700.00000 0 3361670.816 -10505451.209 -22994104.173 10 0 60299 30600.00000 0 6152518.853 -10152895.582 -22572513.389 10 0 60299 31500.00000 0 8882750.885 -10009364.598 -21712355.990 10 0 60299 32400.00000 0 11484216.353 -10064609.256 -20430393.636 10 0 60299 33300.00000 0 13892842.990 -10296678.015 -18751575.904 10 0 60299 34200.00000 0 16051076.312 -10672946.950 -16708553.189 10 0 60299 35100.00000 0 17910054.134 -11151614.594 -14341040.638 10 0 60299 36000.00000 0 19431426.429 -11683598.018 -11695045.324 10 0 60299 36900.00000 0 20588745.537 -12214749.780 -8821971.590 10 0 60299 37800.00000 0 21368369.687 -12688301.884 -5777621.870 10 0 60299 38700.00000 0 21769843.115 -13047433.285 -2621112.377 10 0 60299 39600.00000 0 21805737.875 -13237852.237 586275.141 10 0 60299 40500.00000 0 21500965.093 -13210284.116 3782283.137 10 0 60299 41400.00000 0 20891585.508 -12922759.344 6904886.204 10 0 60299 42300.00000 0 20023170.208 -12342604.473 9893493.564 10 0 60299 43200.00000 0 18948781.157 -11448051.979 12690122.670 10 0 60299 44100.00000 0 17726656.919 -10229400.408 15240521.227 10 0 60299 45000.00000 0 16417701.167 -8689675.359 17495215.975 10 0 60299 45900.00000 0 15082879.510 -6844762.710 19410468.302 10 0 60299 46800.00000 0 13780633.796 -4723007.472 20949118.626 10 0 60299 47700.00000 0 12564422.006 -2364293.897 22081303.715 10 0 60299 48600.00000 0 11480486.443 181356.081 22785033.616 10 0 60299 49500.00000 0 10565943.163 2855609.086 23046617.492 10 0 60299 50400.00000 0 9847272.199 5593996.639 22860930.408 10 0 60299 51300.00000 0 9339271.342 8328352.586 22231515.982 10 0 60299 52200.00000 0 9044516.998 10989411.686 21170522.722 10 0 60299 53100.00000 0 8953354.547 13509462.577 19698474.826 10 0 60299 54000.00000 0 9044418.571 15824945.874 17843881.252 10 0 60299 54900.00000 0 9285661.198 17878890.102 15642689.781 10 0 60299 55800.00000 0 9635845.421 19623084.509 13137595.857 10 0 60299 56700.00000 0 10046440.657 21019898.457 10377218.810 10 0 60299 57600.00000 0 10463840.607 22043671.554 7415160.820 10 0 60299 58500.00000 0 10831809.619 22681616.339 4308966.582 10 0 60299 59400.00000 0 11094053.818 22934195.761 1119003.789 10 0 60299 60300.00000 0 11196807.613 22814959.661 -2092713.583 10 0 60299 61200.00000 0 11091325.312 22349847.355 -5263735.763 10 0 60299 62100.00000 0 10736171.384 21575986.010 -8332397.237 10 0 60299 63000.00000 0 10099211.291 20540035.931 -11239021.864 10 0 60299 63900.00000 0 9159217.533 19296153.071 -13927088.805 10 0 60299 64800.00000 0 7907021.822 17903655.290 -16344335.945 10 0 60299 65700.00000 0 6346163.610 16424491.272 -18443778.890 10 0 60299 66600.00000 0 4493006.537 14920619.195 -20184625.477 10 0 60299 67500.00000 0 2376316.905 13451405.796 -21533068.030 10 0 60299 68400.00000 0 36320.873 12071155.238 -22462938.243 10 0 60299 69300.00000 0 -2476720.968 10826871.472 -22956212.323 10 0 60299 70200.00000 0 -5104362.890 9756347.572 -23003357.111 10 0 60299 71100.00000 0 -7782170.768 8886661.573 -22603510.940 10 0 60299 72000.00000 0 -10442175.424 8233141.056 -21764496.185 10 0 60299 72900.00000 0 -13015481.076 7798838.947 -20502663.565 10 0 60299 73800.00000 0 -15434921.056 7574541.489 -18842571.420 10 0 60299 74700.00000 0 -17637650.852 7539307.016 -16816506.236 10 0 60299 75600.00000 0 -19567571.234 7661511.902 -14463853.687 10 0 60299 76500.00000 0 -21177481.138 7900358.800 -11830332.250 10 0 60299 77400.00000 0 -22430871.256 8207782.833 -8967104.201 10 0 60299 78300.00000 0 -23303284.128 8530674.719 -5929781.169 10 0 60299 79200.00000 0 -23783184.689 8813326.431 -2777343.530 10 0 60299 80100.00000 0 -23872305.607 8999995.607 429005.235 10 0 60299 81000.00000 0 -23585453.782 9037479.935 3627026.806 10 0 60299 81900.00000 0 -22949786.905 8877592.333 6754655.682 10 0 60299 82800.00000 0 -22003591.221 8479431.923 9751202.541 10 0 60299 83700.00000 0 -20794612.427 7811354.518 12558529.867 10 0 60299 84600.00000 0 -19378010.263 6852558.950 15122177.053 10 0 60299 85500.00000 0 -17814022.953 5594221.814 17392413.308 10 0 60300 0.00000 0 -16165439.681 4040132.267 19325198.142 10 0 60300 900.00000 0 -14494985.977 2206798.397 20883032.261 10 0 60300 1800.00000 0 -12862733.417 123021.696 22035680.413 10 0 60300 2700.00000 0 -11323638.555 -2171046.603 22760756.195 10 0 60300 3600.00000 0 -9925315.571 -4625327.421 23044155.303 10 0 60300 4500.00000 0 -8706134.201 -7181656.928 22880330.244 10 0 60300 5400.00000 0 -7693721.934 -9775975.549 22272401.080 10 0 60300 6300.00000 0 -6903932.481 -12340773.251 21232099.886 10 0 60300 7200.00000 0 -6340323.198 -14807690.706 19779549.565 10 0 60300 8100.00000 0 -5994162.962 -17110169.200 17942880.646 10 0 60300 9000.00000 0 -5844969.913 -19186039.828 15757692.686 10 0 60300 9900.00000 0 -5861556.290 -20979944.604 13266369.895 10 0 60300 10800.00000 0 -6003536.262 -22445488.733 10517263.457 10 0 60300 11700.00000 0 -6223233.044 -23547034.193 7563755.802 10 0 60300 12600.00000 0 -6467904.511 -24261059.394 4463224.621 10 0 60300 13500.00000 0 -6682192.857 -24577027.759 1275926.702 10 0 60300 14400.00000 0 -6810694.046 -24497728.588 -1936176.552 10 0 60300 15300.00000 0 -6800537.484 -24039075.772 -5110628.537 10 0 60300 16200.00000 0 -6603865.710 -23229372.886 -8185697.605 10 0 60300 17100.00000 0 -6180108.023 -22108075.802 -11101583.461 10 0 60300 18000.00000 0 -5497950.635 -20724105.276 -13801585.519 10 0 60300 18900.00000 0 -4536918.861 -19133781.017 -16233209.842 10 0 60300 19800.00000 0 -3288503.353 -17398464.628 -18349192.670 10 0 60300 20700.00000 0 -1756781.754 -15582011.007 -20108420.383 10 0 60300 21600.00000 0 41491.426 -13748135.584 -21476728.029 10 0 60300 22500.00000 0 2077331.508 -11957807.968 -22427561.165 10 0 60300 23400.00000 0 4310489.068 -10266781.226 -22942488.516 10 0 60300 24300.00000 0 6690894.531 -8723359.863 -23011556.027 10 0 60300 25200.00000 0 9160522.380 -7366499.319 -22633475.917 10 0 60300 26100.00000 0 11655597.870 -6224315.626 -21815647.513 10 0 60300 27000.00000 0 14109054.950 -5313066.558 -20574009.783 10 0 60300 27900.00000 0 16453143.594 -4636645.681 -18932728.613 10 0 60300 28800.00000 0 18622078.458 -4186609.274 -16923724.968 10 0 60300 29700.00000 0 20554619.039 -3942733.697 -14586053.029 10 0 60300 30600.00000 0 22196474.268 -3874078.563 -11965140.249 10 0 60300 31500.00000 0 23502431.638 -3940509.886 -9111904.024 10 0 60300 32400.00000 0 24438122.477 -4094618.041 -6081762.004 10 0 60300 33300.00000 0 24981350.027 -4283948.806 -2933555.280 10 0 60300 34200.00000 0 25122925.292 -4453452.547 271594.540 10 0 60300 35100.00000 0 24866976.194 -4548047.505 3471472.009 10 0 60300 36000.00000 0 24230717.635 -4515188.293 6603975.073 10 0 60300 36900.00000 0 23243692.663 -4307330.633 9608319.189 10 0 60300 37800.00000 0 21946517.035 -3884187.735 12426214.855 10 0 60300 38700.00000 0 20389180.193 -3214682.636 15002995.754 10 0 60300 39600.00000 0 18628974.117 -2278513.588 17288675.735 10 0 60300 40500.00000 0 16728136.821 -1067265.990 19238914.474 10 0 60300 41400.00000 0 14751308.961 414976.772 20815873.590 10 0 60300 42300.00000 0 12762909.544 2151550.151 21988947.107 10 0 60300 43200.00000 0 10824539.828 4113657.639 22735352.703 10 0 60300 44100.00000 0 8992523.072 6261334.909 23040572.767 10 0 60300 45000.00000 0 7315682.065 8544890.124 22898637.028 10 0 60300 45900.00000 0 5833446.294 10906761.853 22312241.395 10 0 60300 46800.00000 0 4574366.971 13283718.723 21292700.546 10 0 60300 47700.00000 0 3555101.203 15609310.506 19859734.758 10 0 60300 48600.00000 0 2779907.115 17816469.748 18041094.467 10 0 60300 49500.00000 0 2240670.550 19840156.421 15872029.037 10 0 60300 50400.00000 0 1917461.769 21619935.850 13394609.206 10 0 60300 51300.00000 0 1779598.388 23102382.580 10656915.548 10 0 60300 52200.00000 0 1787169.419 24243209.643 7712108.064 10 0 60300 53100.00000 0 1892955.758 25009033.841 4617394.620 10 0 60300 54000.00000 0 2044665.476 25378702.641 1432918.164 10 0 60300 54900.00000 0 2187388.751 25344126.571 -1779415.461 10 0 60300 55800.00000 0 2266167.750 24910581.755 -4957145.772 10 0 60300 56700.00000 0 2228571.674 24096469.583 -8038477.834 10 0 60300 57600.00000 0 2027166.872 22932543.556 -10963489.861 10 0 60300 58500.00000 0 1621776.332 21460635.862 -13675303.947 10 0 60300 59400.00000 0 981431.775 19731937.492 -16121196.481 10 0 60300 60300.00000 0 85934.764 17804904.438 -18253626.206 10 0 60300 61200.00000 0 -1073040.176 15742878.260 -20031159.636 10 0 60300 62100.00000 0 -2491347.904 13611521.087 -21419275.865 10 0 60300 63000.00000 0 -4152306.567 11476172.628 -22391035.367 10 0 60300 63900.00000 0 -6027166.698 9399239.768 -22927600.163 10 0 60300 64800.00000 0 -8076096.661 7437727.576 -23018595.768 10 0 60300 65700.00000 0 -10249643.947 5641014.271 -22662308.386 10 0 60300 66600.00000 0 -12490611.930 4048962.278 -21865713.981 10 0 60300 67500.00000 0 -14736274.339 2690443.169 -20644339.005 10 0 60300 68400.00000 0 -16920835.641 1582336.849 -19021955.665 10 0 60300 69300.00000 0 -18978035.141 729045.475 -17030117.736 10 0 60300 70200.00000 0 -20843786.619 122540.993 -14707545.854 10 0 60300 71100.00000 0 -22458743.680 -257057.153 -12099374.094 10 0 60300 72000.00000 0 -23770683.979 -440399.770 -9256272.390 10 0 60300 72900.00000 0 -24736612.951 -467367.900 -6233461.692 10 0 60300 73800.00000 0 -25324499.285 -385141.082 -3089640.998 10 0 60300 74700.00000 0 -25514569.751 -245956.284 114152.806 10 0 60300 75600.00000 0 -25300109.398 -104652.984 3315730.010 10 0 60300 76500.00000 0 -24687733.881 -16108.766 6452954.865 10 0 60300 77400.00000 0 -23697122.772 -32674.351 9464950.419 10 0 60300 78300.00000 0 -22360225.317 -201716.922 12293277.925 10 0 60300 79200.00000 0 -20719972.088 -563375.900 14883067.957 10 0 60300 80100.00000 0 -18828546.593 -1148626.316 17184081.393 10 0 60300 81000.00000 0 -16745289.124 -1977731.885 19151680.041 10 0 60300 81900.00000 0 -14534320.186 -3059153.526 20747688.543 10 0 60300 82800.00000 0 -12261982.381 -4388959.947 21941131.375 10 0 60300 83700.00000 0 -9994206.869 -5950766.031 22708831.229 10 0 60300 84600.00000 0 -7793913.399 -7716202.754 23035857.682 10 0 60300 85500.00000 0 -5718551.413 -9645900.299 22915817.758 10 0 60301 0.00000 0 -3817883.877 -11690944.566 22350982.971 10 0 60301 900.00000 0 -2132104.236 -13794748.821 21352249.816 10 0 60301 1800.00000 0 -690366.645 -15895261.034 19938934.965 10 0 60301 2700.00000 0 490213.407 -17927419.664 18138407.446 10 0 60301 3600.00000 0 1405044.433 -19825753.669 15985564.826 10 0 60301 4500.00000 0 2062011.620 -21527019.850 13522162.489 10 0 60301 5400.00000 0 2480899.174 -22972767.465 10796008.277 10 0 60301 6300.00000 0 2692307.187 -24111722.728 7860037.440 10 0 60301 7200.00000 0 2736109.146 -24901892.996 4771285.534 10 0 60301 8100.00000 0 2659515.775 -25312301.867 1589779.066 10 0 60301 9000.00000 0 2514827.701 -25324281.678 -1622634.340 10 0 60301 9900.00000 0 2356972.828 -24932268.453 -4803493.021 10 0 60301 10800.00000 0 2240933.573 -24144065.273 -7890941.457 10 0 60301 11700.00000 0 2219173.931 -22980562.574 -10824939.063 10 0 60301 12600.00000 0 2339176.380 -21474926.851 -13548433.250 10 0 60301 13500.00000 0 2641193.948 -19671291.820 -16008473.287 10 0 60301 14400.00000 0 3156313.538 -17623007.000 -18157242.814 10 0 60301 15300.00000 0 3904913.296 -15390517.382 -19952990.648 10 0 60301 16200.00000 0 4895579.994 -13038963.160 -21360841.802 10 0 60301 17100.00000 0 6124532.842 -10635600.007 -22353473.183 10 0 60301 18000.00000 0 7575578.695 -8247147.692 -22911641.229 10 0 60301 18900.00000 0 9220601.233 -5937177.421 -23024551.731 10 0 60301 19800.00000 0 11020564.237 -3763646.389 -22690065.179 10 0 60301 20700.00000 0 12926987.531 -1776681.575 -21914734.093 10 0 60301 21600.00000 0 14883834.407 -16704.175 -20713671.957 10 0 60301 22500.00000 0 16829732.115 1487028.329 -19110256.493 10 0 60301 23400.00000 0 18700433.025 2717402.996 -17135673.117 10 0 60301 24300.00000 0 20431413.966 3669915.639 -14828307.369 10 0 60301 25200.00000 0 21960505.338 4352600.576 -12232998.011 10 0 60301 26100.00000 0 23230440.226 4785430.359 -9400165.170 10 0 60301 27000.00000 0 24191216.963 4999212.171 -6384830.391 10 0 60301 27900.00000 0 24802176.283 5034028.647 -3245547.548 10 0 60301 28800.00000 0 25033706.070 4937289.969 -43265.551 10 0 60301 29700.00000 0 24868502.283 4761480.440 3159855.004 10 0 60301 30600.00000 0 24302333.205 4561695.472 6301648.046 10 0 60301 31500.00000 0 23344274.996 4393073.702 9321147.473 10 0 60301 32400.00000 0 22016408.694 4308233.231 12159768.346 10 0 60301 33300.00000 0 20352991.301 4354820.655 14762440.909 10 0 60301 34200.00000 0 18399135.561 4573276.710 17078675.537 10 0 60301 35100.00000 0 16209053.414 4994913.059 19063538.300 10 0 60301 36000.00000 0 13843936.127 5640381.654 20678518.660 10 0 60301 36900.00000 0 11369559.062 6518601.565 21892272.995 10 0 60301 37800.00000 0 8853710.215 7626189.031 22681230.114 10 0 60301 38700.00000 0 6363548.781 8947415.534 23030047.506 10 0 60301 39600.00000 0 3963002.753 10454696.688 22931909.824 10 0 60301 40500.00000 0 1710312.808 12109592.715 22388663.943 10 0 60301 41400.00000 0 -344176.360 13864279.961 21410787.849 10 0 60301 42300.00000 0 -2159886.268 15663433.240 20017193.557 10 0 60301 43200.00000 0 -3707459.444 17446441.521 18234867.271 10 0 60301 44100.00000 0 -4969738.912 19149865.356 16098352.949 10 0 60301 45000.00000 0 -5942232.149 20710033.938 13649088.491 10 0 60301 45900.00000 0 -6633040.736 22065673.471 10934606.591 10 0 60301 46800.00000 0 -7062259.276 23160456.738 8007615.129 10 0 60301 47700.00000 0 -7260869.461 23945366.613 4924974.568 10 0 60301 48600.00000 0 -7269176.510 24380773.698 1746592.097 10 0 60301 49500.00000 0 -7134854.709 24438140.008 -1465745.818 10 0 60301 50400.00000 0 -6910685.446 24101276.207 -4649579.263 10 0 60301 51300.00000 0 -6652084.341 23367098.663 -7742995.000 10 0 60301 52200.00000 0 -6414523.108 22245853.725 -10685836.378 10 0 60301 53100.00000 0 -6250956.309 20760799.217 -13420878.678 10 0 60301 54000.00000 0 -6209362.890 18947356.090 -15894946.372 10 0 60301 54900.00000 0 -6330507.456 16851765.612 -18059950.076 10 0 60301 55800.00000 0 -6646016.720 14529308.286 -19873822.736 10 0 60301 56700.00000 0 -7176853.097 12042159.013 -21301336.862 10 0 60301 57600.00000 0 -7932250.419 9456968.130 -22314787.130 10 0 60301 58500.00000 0 -8909157.150 6842269.199 -22894525.464 10 0 60301 59400.00000 0 -10092210.956 4265821.423 -23029338.715 10 0 60301 60300.00000 0 -11454246.159 1791996.888 -22716662.111 10 0 60301 61200.00000 0 -12957313.164 -520679.152 -21962624.796 10 0 60301 62100.00000 0 -14554167.510 -2621733.505 -20781926.921 10 0 60301 63000.00000 0 -16190166.521 -4470605.043 -19197550.916 10 0 60301 63900.00000 0 -17805494.451 -6038083.261 -17240312.571 10 0 60301 64800.00000 0 -19337623.176 -7307266.813 -14948260.659 10 0 60301 65700.00000 0 -20723905.602 -8274003.520 -12365936.581 10 0 60301 66600.00000 0 -21904193.205 -8946794.979 -9543508.326 10 0 60301 67500.00000 0 -22823368.019 -9346171.318 -6535795.448 10 0 60301 68400.00000 0 -23433682.853 -9503563.799 -3401203.946 10 0 60301 69300.00000 0 -23696811.424 -9459724.018 -200591.847 10 0 60301 70200.00000 0 -23585522.226 -9262757.477 3003912.373 10 0 60301 71100.00000 0 -23084905.709 -8965855.420 6150115.397 10 0 60301 72000.00000 0 -22193103.063 -8624821.442 9176965.091 10 0 60301 72900.00000 0 -20921505.815 -8295497.909 12025733.406 10 0 60301 73800.00000 0 -19294417.606 -8031201.235 14641153.233 10 0 60301 74700.00000 0 -17348191.993 -7880274.563 16972487.227 10 0 60301 75600.00000 0 -15129881.894 -7883861.259 18974508.215 10 0 60301 76500.00000 0 -12695456.569 -8073993.218 20608372.603 10 0 60301 77400.00000 0 -10107659.829 -8472074.686 21842370.361 10 0 60301 78300.00000 0 -7433597.900 -9087825.683 22652537.625 10 0 60301 79200.00000 0 -4742156.385 -9918729.926 23023120.532 10 0 60301 80100.00000 0 -2101352.729 -10950011.083 22946881.621 10 0 60301 81000.00000 0 424266.868 -12155139.270 22425243.030 10 0 60301 81900.00000 0 2776078.985 -13496847.587 21468263.556 10 0 60301 82800.00000 0 4903582.046 -14928617.221 20094449.662 10 0 60301 83700.00000 0 6766252.377 -16396570.037 18330403.466 10 0 60301 84600.00000 0 8334980.787 -17841690.321 16210313.744 10 0 60301 85500.00000 0 9593030.448 -19202283.342 13775299.027 10 0 60302 0.00000 0 10536476.623 -20416567.958 11072614.944 10 0 60302 900.00000 0 11174110.896 -21425295.204 8154739.080 10 0 60302 1800.00000 0 11526813.323 -22174281.004 5078354.372 10 0 60302 2700.00000 0 11626421.226 -22616748.152 1903245.866 10 0 60302 3600.00000 0 11514141.687 -22715376.558 -1308864.039 10 0 60302 4500.00000 0 11238576.066 -22443975.152 -4495520.111 10 0 60302 5400.00000 0 10853440.836 -21788703.926 -7594754.282 10 0 60302 6300.00000 0 10415082.018 -20748793.645 -10546296.628 10 0 60302 7200.00000 0 9979889.344 -19336732.079 -13292752.962 10 0 60302 8100.00000 0 9601720.505 -17577908.152 -15780725.450 10 0 60302 9000.00000 0 9329445.222 -15509728.405 -17961853.969 10 0 60302 9900.00000 0 9204713.739 -13180242.399 -19793757.635 10 0 60302 10800.00000 0 9260044.509 -10646334.316 -21240858.191 10 0 60302 11700.00000 0 9517312.231 -7971556.113 -22275069.478 10 0 60302 12600.00000 0 9986700.235 -5223692.417 -22876339.935 10 0 60302 13500.00000 0 10666161.541 -2472158.375 -23033038.126 10 0 60302 14400.00000 0 11541411.395 214661.705 -22742174.294 10 0 60302 15300.00000 0 12586451.724 2772024.710 -22009454.129 10 0 60302 16200.00000 0 13764605.595 5141280.369 -20849164.048 10 0 60302 17100.00000 0 15030018.385 7272063.131 -19283890.451 10 0 60302 18000.00000 0 16329562.806 9124134.213 -17344078.461 10 0 60302 18900.00000 0 17605067.945 10668798.348 -15067438.704 10 0 60302 19800.00000 0 18795778.870 11889837.565 -12498213.500 10 0 60302 20700.00000 0 19840943.559 12783924.410 -9686316.625 10 0 60302 21600.00000 0 20682418.466 13360498.855 -6686363.229 10 0 60302 22500.00000 0 21267183.155 13641115.482 -3556608.715 10 0 60302 23400.00000 0 21549658.132 13658289.759 -357817.274 10 0 60302 24300.00000 0 21493728.199 13453893.190 2847917.844 10 0 60302 25200.00000 0 21074385.996 13077166.021 5998379.237 10 0 60302 26100.00000 0 20278926.319 12582432.153 9032431.838 10 0 60302 27000.00000 0 19107640.648 12026613.319 11891207.464 10 0 60302 27900.00000 0 17573982.308 11466647.866 14519244.431 10 0 60302 28800.00000 0 15704194.786 10956923.271 16865560.219 10 0 60302 29700.00000 0 13536418.149 10546830.750 18884636.698 10 0 60302 30600.00000 0 11119310.168 10278545.008 20537299.220 10 0 60302 31500.00000 0 8510238.845 10185122.567 21791473.058 10 0 60302 32400.00000 0 5773120.692 10288998.683 22622803.060 10 0 60302 33300.00000 0 2975993.632 10600946.121 23015125.031 10 0 60302 34200.00000 0 188424.325 11119539.808 22960780.026 10 0 60302 35100.00000 0 -2521143.551 11831150.288 22460765.624 10 0 60302 36000.00000 0 -5087991.100 12710466.913 21524721.145 10 0 60302 36900.00000 0 -7453569.033 13721529.599 20170746.713 10 0 60302 37800.00000 0 -9567684.873 14819226.737 18425059.099 10 0 60302 38700.00000 0 -11390342.409 15951197.256 16321490.204 10 0 60302 39600.00000 0 -12893157.378 17060057.659 13900837.123 10 0 60302 40500.00000 0 -14060290.931 18085860.985 11210075.567 10 0 60302 41400.00000 0 -14888862.361 18968684.491 8301451.245 10 0 60302 42300.00000 0 -15388824.280 19651237.014 5231466.440 10 0 60302 43200.00000 0 -15582306.043 20081375.751 2059781.313 10 0 60302 44100.00000 0 -15502453.654 20214425.635 -1151948.569 10 0 60302 45000.00000 0 -15191815.731 20015202.548 -4341275.411 10 0 60302 45900.00000 0 -14700344.473 19459653.963 -7446179.021 10 0 60302 46800.00000 0 -14083096.905 18536046.707 -10406278.836 10 0 60302 47700.00000 0 -13397734.521 17245650.707 -13164013.709 10 0 60302 48600.00000 0 -12701927.859 15602888.926 -15665765.847 10 0 60302 49500.00000 0 -12050776.518 13634946.358 -17862906.536 10 0 60302 50400.00000 0 -11494354.274 11380853.741 -19712742.980 10 0 60302 51300.00000 0 -11075483.395 8890083.843 -21179347.846 10 0 60302 52200.00000 0 -10827832.330 6220718.509 -22234255.589 10 0 60302 53100.00000 0 -10774417.046 3437262.591 -22857012.366 10 0 60302 54000.00000 0 -10926569.078 608195.480 -23035569.385 10 0 60302 54900.00000 0 -11283413.543 -2196638.368 -22766512.539 10 0 60302 55800.00000 0 -11831878.862 -4908691.871 -22055124.363 10 0 60302 56700.00000 0 -12547237.572 -7463320.758 -20915277.470 10 0 60302 57600.00000 0 -13394155.265 -9802224.576 -19369161.765 10 0 60302 58500.00000 0 -14328203.453 -11875622.636 -17446850.832 10 0 60302 59400.00000 0 -15297772.622 -13644075.507 -15185715.894 10 0 60302 60300.00000 0 -16246304.960 -15079877.355 -12629698.581 10 0 60302 61200.00000 0 -17114752.761 -16167962.288 -9828456.532 10 0 60302 62100.00000 0 -17844158.915 -16906288.211 -6836398.315 10 0 60302 63000.00000 0 -18378250.753 -17305683.453 -3711626.330 10 0 60302 63900.00000 0 -18665937.749 -17389163.932 -514808.323 10 0 60302 64800.00000 0 -18663607.664 -17190750.770 2692000.456 10 0 60302 65700.00000 0 -18337124.087 -16753839.220 5846561.449 10 0 60302 66600.00000 0 -17663440.876 -16129188.499 8887659.711 10 0 60302 67500.00000 0 -16631765.130 -15372617.968 11756290.042 10 0 60302 68400.00000 0 -15244219.222 -14542507.233 14396799.292 10 0 60302 69300.00000 0 -13515973.494 -13697205.825 16757962.776 10 0 60302 70200.00000 0 -11474843.242 -12892461.635 18793974.216 10 0 60302 71100.00000 0 -9160365.987 -12178976.276 20465330.431 10 0 60302 72000.00000 0 -6622396.549 -11600190.029 21739594.130 10 0 60302 72900.00000 0 -3919277.402 -11190389.253 22592020.591 10 0 60302 73800.00000 0 -1115659.214 -10973215.536 23006036.541 10 0 60302 74700.00000 0 1719938.986 -10960639.095 22973562.330 10 0 60302 75600.00000 0 4517729.998 -11152439.520 22495171.318 10 0 60302 76500.00000 0 7209312.197 -11536215.897 21580083.253 10 0 60302 77400.00000 0 9730267.785 -12087926.229 20245991.429 10 0 60302 78300.00000 0 12022598.572 -12772934.064 18518726.392 10 0 60302 79200.00000 0 14036898.846 -13547518.912 16431761.913 10 0 60302 80100.00000 0 15734175.463 -14360787.511 14025572.024 10 0 60302 81000.00000 0 17087239.807 -15156905.960 11346850.766 10 0 60302 81900.00000 0 18081613.834 -15877558.925 8447609.110 10 0 60302 82800.00000 0 18715912.646 -16464532.214 5384166.202 10 0 60302 83700.00000 0 19001687.894 -16862309.416 2216054.333 10 0 60302 84600.00000 0 18962739.079 -17020572.351 -995140.941 10 0 60302 85500.00000 0 18633922.220 -16896498.860 -4186982.521 99